Location: Recife
(8.0585°S, 34.8848°W)
Time: 11:13:02
(UTC-03:00)

Explorer 7 - Pass Details

Date: 17 April 2026
Orbit: 427 x 536 km, 50.2° (Epoch: 14 May)

Event Time Altitude Azimuth Distance (km) Brightness Sun altitude
Rises 01:01:28 0° 315° (NW) 2,463 - -64.7°
Reaches altitude 10° 01:03:40 10° 310° (NW) 1,576 - -64.1°
Maximum altitude 01:07:07 52° 232° (SW) 557 - -63.3°
Drops below altitude 10° 01:10:30 10° 155° (SSE) 1,541 - -62.4°
Sets 01:12:38 0° 149° (SSE) 2,402 - -61.9°
